Waarnemingen

Advertentie
Mijn weer
Le Luc, Frankrijk (7675): temperatuur & dauwpunt: 19.04.2019 16:00:00 - 25.04.2019 16:00:00 (CEST)Le Luc, Frankrijk (7675): temperatuur 5cm: 19.04.2019 16:00:00 - 25.04.2019 16:00:00 (CEST)Le Luc, Frankrijk (7675): windsnelheid & windstoten: 19.04.2019 16:00:00 - 25.04.2019 16:00:00 (CEST)Le Luc, Frankrijk (7675): windrichting: 19.04.2019 16:00:00 - 25.04.2019 16:00:00 (CEST)Le Luc, Frankrijk (7675): luchtdruk: 19.04.2019 16:00:00 - 25.04.2019 16:00:00 (CEST)Le Luc, Frankrijk (7675): zicht: 19.04.2019 16:00:00 - 25.04.2019 16:00:00 (CEST)Le Luc, Frankrijk (7675): Zonneschijnduur: 19.04.2019 16:00:00 - 25.04.2019 16:00:00 (CEST)Le Luc, Frankrijk (7675): neerslag: 19.04.2019 16:00:00 - 25.04.2019 16:00:00 (CEST)
Datum & Tijd tt [°C] td [°C] tt 5cm [°C] ff [km/u] ff [kn] fx [km/u] fx [kn] dd ppp [hPa] vv [km] sd [min] rr [mm]
25.04.2019 16:00:00 - - - - - - - - - - - -
25.04.2019 15:00:00 16,9 11,8 18,2 21 11 37 20 OZO 1017,0 28 5 0,0
25.04.2019 14:00:00 17,3 11,3 17,5 24 13 43 23 OZO 1017,1 20 21 0,0
25.04.2019 13:00:00 16,0 10,7 16,4 27 14 40 22 OZO 1017,2 29 0 0,0
25.04.2019 12:00:00 15,1 11,5 14,5 21 11 32 17 OZO 1017,7 20 0 0,0
25.04.2019 11:00:00 14,4 10,4 14,3 23 12 32 18 O 1017,3 28 0 0,0
25.04.2019 10:00:00 14,4 10,4 13,5 13 7 25 13 O 1017,2 23 0 0,0
25.04.2019 09:00:00 13,6 11,1 11,3 15 8 23 12 O 1016,7 21 0 0,0
25.04.2019 08:00:00 11,3 10,4 9,6 3 2 14 8 ONO 1016,6 17 0 0,0
25.04.2019 07:00:00 10,5 9,6 9,2 6 3 12 7 ONO 1016,7 19 0 0,0
25.04.2019 06:00:00 10,5 9,7 9,0 6 3 13 7 NO 1016,5 15 0 0,0
25.04.2019 05:00:00 10,5 9,9 9,1 9 5 16 9 NO 1016,8 13 0 0,0
25.04.2019 04:00:00 10,6 10,0 9,4 11 6 19 10 NO 1017,1 14 0 0,0
25.04.2019 03:00:00 10,9 10,4 9,5 10 6 14 8 NO 1017,3 11 0 0,0
25.04.2019 02:00:00 10,8 10,3 8,9 8 4 13 7 ONO 1017,5 12 0 0,0
25.04.2019 01:00:00 10,4 9,8 7,8 6 3 9 5 NO 1017,2 7 0 0,0
25.04.2019 00:00:00 11,0 10,2 8,7 3 2 14 7 ONO 1016,8 8 0 0,0
24.04.2019 23:00:00 11,3 10,5 7,8 5 3 12 6 NO 1016,4 14 0 0,0
24.04.2019 22:00:00 12,4 10,6 8,9 2 1 13 7 ONO 1015,9 17 0 0,0
24.04.2019 21:00:00 13,8 11,5 12,3 8 4 19 10 OZO 1014,9 17 0 0,0
24.04.2019 20:00:00 15,2 9,8 14,3 12 7 22 12 OZO 1014,1 20 38 0,0
24.04.2019 19:00:00 17,5 6,4 16,9 6 3 26 14 Z 1014,1 20 44 0,0
24.04.2019 18:00:00 16,8 7,7 18,2 10 5 27 15 Z 1013,8 20 42 0,0
24.04.2019 17:00:00 17,7 8,0 19,6 13 7 31 17 Z 1013,4 20 37 0,0
24.04.2019 16:00:00 17,5 10,6 19,4 14 8 31 17 Z 1013,0 20 16 0,0
24.04.2019 15:00:00 18,0 12,9 16,8 13 7 27 14 ZO 1012,8 19 23 0,0
24.04.2019 14:00:00 16,5 12,8 14,4 12 6 31 17 ZZO 1012,5 27 4 0,4
24.04.2019 13:00:00 14,8 12,1 13,2 12 6 34 18 ZZO 1012,1 12 0 1,2
24.04.2019 12:00:00 14,2 11,9 13,0 11 6 28 15 ZZO 1011,5 11 0 2,2
24.04.2019 11:00:00 13,6 12,8 13,1 4 2 16 9 OZO 1011,4 3,0 0 4,9
24.04.2019 10:00:00 14,0 12,9 13,3 7 4 11 6 O 1010,5 6 0 1,4
24.04.2019 09:00:00 14,2 12,8 13,3 3 2 20 11 Z 1010,0 7 0 2,4
24.04.2019 08:00:00 14,3 13,7 13,5 6 3 13 7 OZO 1009,0 5 0 1,0
24.04.2019 07:00:00 14,3 13,3 13,5 7 4 18 10 O 1008,4 6 0 0,2
24.04.2019 06:00:00 14,5 13,4 13,5 13 7 23 13 O 1007,9 9 0 0,2
24.04.2019 05:00:00 14,3 13,3 13,2 11 6 19 10 O 1007,8 7 0 0,4
24.04.2019 04:00:00 14,0 12,7 13,1 10 5 19 10 O 1007,2 12 0 0,0
24.04.2019 03:00:00 13,7 12,8 13,0 10 5 17 9 ONO 1007,1 30 0 0,0
24.04.2019 02:00:00 13,8 12,2 13,2 12 7 21 11 ONO 1006,9 46 0 0,0
24.04.2019 01:00:00 13,9 12,1 13,1 9 5 15 8 ONO 1006,9 49 0 0,0
24.04.2019 00:00:00 14,0 12,2 13,5 6 4 10 6 O 1006,3 50 0 0,0
23.04.2019 23:00:00 14,1 12,1 13,5 6 3 14 8 OZO 1005,7 50 0 0,0
23.04.2019 22:00:00 14,1 12,1 13,1 8 5 15 8 ZO 1004,7 50 0 0,0
23.04.2019 21:00:00 14,4 12,3 13,6 8 4 15 8 ZO 1003,6 50 0 0,0
23.04.2019 20:00:00 14,7 12,4 14,0 14 7 24 13 OZO 1002,3 50 0 0,0
23.04.2019 19:00:00 15,3 12,8 14,5 16 8 29 16 O 1001,8 50 0 0,0
23.04.2019 18:00:00 15,1 13,0 14,5 14 8 33 18 O 1001,2 48 0 0,0
23.04.2019 17:00:00 15,8 13,8 14,3 16 9 33 18 O 1000,6 13 3 0,6
23.04.2019 16:00:00 15,0 13,2 14,4 19 11 35 19 ONO 1000,2 14 0 0,4
23.04.2019 15:00:00 15,6 12,2 14,3 16 9 29 16 O 1000,0 50 0 0,2
23.04.2019 14:00:00 15,4 13,1 13,9 16 9 27 14 ONO 999,9 19 0 0,2
23.04.2019 13:00:00 14,5 12,4 13,3 17 9 34 18 ONO 1000,0 47 0 0,0
23.04.2019 12:00:00 14,2 12,1 12,8 19 11 40 22 O 1000,0 16 0 0,4
23.04.2019 11:00:00 14,3 11,6 12,4 20 11 35 19 O 999,4 17 0 0,2
23.04.2019 10:00:00 13,6 11,3 12,2 16 8 30 16 O 999,2 9 0 0,6
23.04.2019 09:00:00 13,2 11,1 11,5 10 5 23 13 O 999,0 9 0 1,2
23.04.2019 08:00:00 14,0 9,4 11,9 13 7 33 18 OZO 998,6 15 0 0,2
23.04.2019 07:00:00 15,6 7,1 14,3 16 9 35 19 O 998,3 20 0 0,0
23.04.2019 06:00:00 15,6 7,6 11,5 21 11 36 20 O 998,4 20 0 0,0
23.04.2019 05:00:00 13,1 10,6 11,4 0 0 4 2 N 999,0 20 0 0,0
23.04.2019 04:00:00 13,2 9,6 11,5 3 2 10 5 Z 999,7 16 0 0,2
23.04.2019 03:00:00 14,4 9,6 12,7 6 3 23 12 WZW 999,9 20 0 0,0
23.04.2019 02:00:00 15,6 8,1 12,6 14 7 37 20 O 1000,6 20 0 0,0
23.04.2019 01:00:00 16,5 7,7 15,2 20 11 61 33 O 1001,0 50 0 0,0
23.04.2019 00:00:00 17,2 7,0 15,3 22 12 42 23 O 1001,4 20 0 0,0
22.04.2019 23:00:00 17,6 6,5 13,9 23 12 47 25 O 1001,4 50 0 0,0
22.04.2019 22:00:00 16,3 8,0 11,7 16 9 50 27 O 1001,8 45 0 0,6
22.04.2019 21:00:00 17,0 7,3 12,2 21 11 54 29 O 1001,7 19 0 0,2
22.04.2019 20:00:00 18,3 5,5 14,0 31 17 66 36 O 1001,4 30 0 0,0
22.04.2019 19:00:00 19,0 5,1 18,8 36 20 70 38 O 1001,1 30 2 0,0
22.04.2019 18:00:00 18,9 6,0 18,7 37 20 72 39 O 1000,7 28 0 0,0
22.04.2019 17:00:00 19,9 4,0 19,6 42 23 77 41 O 1000,9 32 0 0,0
22.04.2019 16:00:00 21,8 2,5 22,1 43 23 86 47 O 1001,2 30 20 0,0
22.04.2019 15:00:00 22,3 2,9 23,1 42 23 79 42 O 1001,0 27 0 0,0
22.04.2019 14:00:00 22,3 3,9 22,8 46 25 82 45 O 1001,4 20 34 0,0
22.04.2019 13:00:00 22,9 1,8 24,4 41 22 86 47 O 1002,1 28 60 0,0
22.04.2019 12:00:00 22,8 2,8 24,1 43 23 79 43 O 1002,5 28 60 0,0
22.04.2019 11:00:00 22,2 1,8 23,7 45 24 77 42 O 1003,0 25 60 0,0
22.04.2019 10:00:00 21,6 3,7 21,7 26 14 45 24 O 1003,3 20 60 0,0
22.04.2019 09:00:00 20,2 3,4 19,2 24 13 41 22 O 1003,6 20 60 0,0
22.04.2019 08:00:00 19,2 3,8 17,8 27 14 51 28 O 1003,9 28 57 0,0
22.04.2019 07:00:00 19,0 3,2 17,4 36 19 63 34 O 1004,6 32 0 0,0
22.04.2019 06:00:00 18,7 5,2 17,5 31 17 67 36 O 1005,1 31 0 0,0
22.04.2019 05:00:00 19,3 4,2 18,0 35 19 56 31 O 1005,8 39 0 0,0
22.04.2019 04:00:00 19,2 4,9 14,2 29 15 49 27 O 1006,8 42 0 0,0
22.04.2019 03:00:00 17,3 5,2 14,9 10 5 40 21 O 1008,1 38 0 0,0
22.04.2019 02:00:00 18,3 5,5 15,6 31 17 48 26 ONO 1009,2 40 0 0,0
22.04.2019 01:00:00 17,3 5,9 14,5 14 8 25 13 O 1010,2 43 0 0,0
22.04.2019 00:00:00 17,0 6,5 15,6 13 7 36 19 O 1011,0 36 0 0,0
21.04.2019 23:00:00 17,1 7,2 16,0 18 10 40 21 O 1011,3 40 0 0,0
21.04.2019 22:00:00 17,6 5,8 16,5 22 12 41 22 O 1011,3 45 0 0,0
21.04.2019 21:00:00 17,9 4,5 16,4 21 11 37 20 O 1011,7 50 0 0,0
21.04.2019 20:00:00 18,0 2,7 17,0 18 10 38 20 O 1011,8 50 0 0,0
21.04.2019 19:00:00 19,0 2,8 18,9 26 14 42 23 O 1012,3 42 57 0,0
21.04.2019 18:00:00 19,7 3,8 19,1 24 13 54 29 O 1013,0 42 26 0,0
21.04.2019 17:00:00 19,0 4,0 19,2 32 17 58 32 O 1013,6 43 0 0,0
21.04.2019 16:00:00 19,5 3,2 19,4 30 16 58 31 O 1013,9 42 0 0,0
21.04.2019 15:00:00 19,9 4,4 20,3 35 19 59 32 O 1014,4 39 0 0,0
21.04.2019 14:00:00 20,7 3,8 21,4 38 21 68 37 O 1014,8 43 10 0,0
21.04.2019 13:00:00 20,4 4,0 20,7 36 19 60 33 O 1015,6 43 12 0,0
21.04.2019 12:00:00 20,2 3,4 19,4 34 18 60 33 O 1015,9 39 1 0,0
21.04.2019 11:00:00 19,1 3,3 19,0 31 17 66 36 O 1016,4 46 2 0,0
21.04.2019 10:00:00 19,4 3,9 19,2 42 23 69 38 O 1016,1 37 3 0,0
21.04.2019 09:00:00 19,5 4,0 18,3 19 10 59 32 O 1016,0 49 0 0,0
21.04.2019 08:00:00 19,1 3,7 16,4 20 11 45 24 O 1016,3 50 0 0,0
21.04.2019 07:00:00 17,8 4,4 14,1 11 6 22 12 O 1016,4 50 0 0,0
21.04.2019 06:00:00 16,8 5,4 14,0 6 4 31 17 NO 1016,9 50 0 0,0
21.04.2019 05:00:00 16,0 7,0 13,7 7 4 18 10 O 1017,6 49 0 0,0
21.04.2019 04:00:00 15,9 7,6 14,6 9 5 38 20 NNO 1018,2 47 0 0,0
21.04.2019 03:00:00 17,1 6,9 13,6 16 8 27 15 O 1018,9 45 0 0,0
21.04.2019 02:00:00 15,1 6,9 13,1 4 2 10 5 ZO 1019,7 50 0 0,0
21.04.2019 01:00:00 15,5 6,0 13,7 0 0 17 9 N 1019,8 50 0 0,0
21.04.2019 00:00:00 15,9 5,5 13,5 3 2 8 5 NO 1020,2 50 0 0,0
20.04.2019 23:00:00 16,7 4,7 14,4 5 3 14 7 NNW 1020,6 50 0 0,0
20.04.2019 22:00:00 16,9 4,9 14,6 9 5 14 8 NNO 1020,5 50 0 0,0
20.04.2019 21:00:00 16,7 5,0 14,8 8 5 15 8 NNO 1020,7 50 0 0,0
20.04.2019 20:00:00 17,5 4,4 16,1 9 5 34 19 NNO 1020,9 50 0 0,0
20.04.2019 19:00:00 18,7 3,7 18,1 14 8 34 18 ONO 1021,0 50 0 0,0
20.04.2019 18:00:00 19,0 2,3 19,0 28 15 41 22 O 1021,2 47 0 0,0
20.04.2019 17:00:00 20,1 2,9 20,6 22 12 49 27 O 1021,5 46 0 0,0
20.04.2019 16:00:00 20,0 2,3 21,2 33 18 55 30 O 1022,1 40 15 0,0
20.04.2019 15:00:00 20,4 2,2 21,9 32 17 59 32 O 1022,8 42 23 0,0
20.04.2019 14:00:00 21,1 3,3 23,0 34 18 59 32 O 1022,6 31 58 0,0
20.04.2019 13:00:00 20,1 2,0 22,0 35 19 52 28 O 1023,9 37 60 0,0
20.04.2019 12:00:00 19,5 3,6 21,6 27 15 50 27 ONO 1024,4 39 52 0,0
20.04.2019 11:00:00 19,9 5,2 23,0 25 13 43 23 O 1024,8 20 60 0,0
20.04.2019 10:00:00 14,9 8,1 18,1 3 2 7 4 ONO 1025,2 36 60 0,0
20.04.2019 09:00:00 10,0 6,0 10,4 0 0 5 3 N 1025,7 39 60 0,0
20.04.2019 08:00:00 6,2 4,4 2,2 3 1 4 2 O 1026,2 20 54 0,0
20.04.2019 07:00:00 4,1 2,8 1,5 0 0 4 2 N 1025,8 20 0 0,0
20.04.2019 06:00:00 4,7 3,7 1,6 2 1 5 3 W 1025,7 31 0 0,0
20.04.2019 05:00:00 4,8 3,6 1,2 2 1 4 2 W 1026,0 20 0 0,0
20.04.2019 04:00:00 5,5 4,3 1,9 0 0 4 2 N 1026,0 20 0 0,0
20.04.2019 03:00:00 6,9 4,9 3,2 3 2 4 2 W 1026,0 41 0 0,0
20.04.2019 02:00:00 7,5 5,1 3,5 0 0 2 1 N 1026,3 43 0 0,0
20.04.2019 01:00:00 8,2 5,1 4,8 0 0 4 2 N 1026,7 48 0 0,0
20.04.2019 00:00:00 9,3 5,8 5,9 3 1 5 3 WNW 1027,0 44 0 0,0
19.04.2019 23:00:00 11,0 5,9 7,8 0 0 7 4 N 1027,1 50 0 0,0
19.04.2019 22:00:00 12,6 6,0 9,6 5 3 6 4 W 1027,2 50 0 0,0
19.04.2019 21:00:00 15,3 4,9 11,9 3 2 9 5 ZZW 1026,7 50 0 0,0
19.04.2019 20:00:00 17,5 4,4 16,1 10 5 24 13 O 1026,1 49 41 0,0
19.04.2019 19:00:00 19,4 3,9 20,2 14 8 32 17 O 1025,7 48 60 0,0
19.04.2019 18:00:00 20,6 3,3 22,2 22 12 40 22 O 1025,5 38 60 0,0
19.04.2019 17:00:00 21,2 2,4 23,8 24 13 53 29 O 1025,5 47 60 0,0
19.04.2019 16:00:00 21,0 2,7 24,1 32 17 54 29 O 1025,8 38 60 0,0

tt = temperatuur
td = dauwpunt
tt 5cm = temperatuur 5cm
ff = windsnelheid
fx = windstoten
dd = windrichting
ppp = luchtdruk
vv = zicht
sd = Zonneschijnduur
rr = neerslag

Weerstations in de omgeving